Weather reports worldwide

Advertisment
Berlin/Tegel, Germany (10382): temperature & dewpoint: 12.10.2018 03:00:00 - 18.10.2018 03:00:00 (CEST)Berlin/Tegel, Germany (10382): temperature 5cm & temperature -5cm: 12.10.2018 03:00:00 - 18.10.2018 03:00:00 (CEST)Berlin/Tegel, Germany (10382): temperature -20cm & temperature -100cm: 12.10.2018 03:00:00 - 18.10.2018 03:00:00 (CEST)Berlin/Tegel, Germany (10382): wind speed & gusts: 12.10.2018 03:00:00 - 18.10.2018 03:00:00 (CEST)Berlin/Tegel, Germany (10382): wind direction: 12.10.2018 03:00:00 - 18.10.2018 03:00:00 (CEST)Berlin/Tegel, Germany (10382): reduced air pressure: 12.10.2018 03:00:00 - 18.10.2018 03:00:00 (CEST)Berlin/Tegel, Germany (10382): visibility: 12.10.2018 03:00:00 - 18.10.2018 03:00:00 (CEST)Berlin/Tegel, Germany (10382): sunshine duration: 12.10.2018 03:00:00 - 18.10.2018 03:00:00 (CEST)Berlin/Tegel, Germany (10382): precipitation: 12.10.2018 03:00:00 - 18.10.2018 03:00:00 (CEST)
Date & Time tt [°C] td [°C] tt 5cm [°C] tt -5cm [°C] tt -20cm [°C] tt -100cm [°C] ff [km/h] ff [kn] fx [km/h] fx [kn] dd ppp [hPa] vv [km] sd [min] rr [mm]
18.10.2018 03:00:00 6,4 5,8 4,1 11,1 14,1 14,9 2 1 4 2 W 1019,7 10 0 0,0
18.10.2018 02:00:00 8,5 7,9 4,6 11,5 14,4 14,9 2 1 4 2 E 1019,5 10 0 0,0
18.10.2018 01:00:00 8,7 8,1 5,1 12,0 14,6 14,9 4 2 5 3 NNW 1019,7 10 0 0,0
18.10.2018 00:00:00 9,2 8,1 5,4 12,5 14,9 14,9 2 1 4 2 - 1019,6 10 0 0,0
17.10.2018 23:00:00 10,3 8,5 6,4 13,1 15,2 15,0 2 1 5 3 - 1019,7 10 0 0,0
17.10.2018 22:00:00 12,0 9,5 7,3 13,8 15,5 15,0 4 2 9 5 NNW 1019,8 10 0 0,0
17.10.2018 21:00:00 12,9 9,3 10,4 14,5 15,7 15,0 5 3 8 4 E 1019,4 10 0 0,0
17.10.2018 20:00:00 13,0 9,0 9,4 15,4 15,9 15,0 2 1 4 2 - 1019,2 10 0 0,0
17.10.2018 19:00:00 15,4 9,3 11,2 16,6 15,9 15,0 0 0 8 4 N 1018,9 10 0 0,0
17.10.2018 18:00:00 18,3 8,7 14,8 18,0 15,8 15,0 5 3 9 5 ESE 1018,7 10 27 0,0
17.10.2018 17:00:00 20,2 8,9 19,8 19,2 15,4 15,0 8 4 13 7 SE 1018,5 10 60 0,0
17.10.2018 16:00:00 20,7 8,1 21,9 19,6 14,9 15,0 8 4 13 7 ESE 1018,4 10 60 0,0
17.10.2018 15:00:00 21,1 8,1 23,8 19,4 14,3 15,0 8 4 15 8 SSW 1018,5 10 60 0,0
17.10.2018 14:00:00 20,6 8,4 24,6 18,5 13,7 15,0 5 3 16 9 - 1018,8 10 60 0,0
17.10.2018 13:00:00 19,6 7,6 23,2 17,1 13,2 15,0 5 3 9 5 SE 1019,3 10 60 0,0
17.10.2018 12:00:00 17,9 7,8 20,8 15,1 12,8 15,0 4 2 9 5 - 1019,7 10 60 0,0
17.10.2018 11:00:00 15,8 7,7 17,9 12,9 12,6 15,0 2 1 5 3 - 1019,8 10 60 0,0
17.10.2018 10:00:00 12,7 7,9 14,4 10,9 12,7 15,0 4 2 9 5 - 1019,9 10 60 0,0
17.10.2018 09:00:00 10,0 6,7 8,7 9,7 12,9 15,0 2 1 9 5 - 1020,0 10 27 0,0
17.10.2018 08:00:00 8,3 6,3 5,4 9,6 13,1 15,0 4 2 8 4 NNE 1019,6 13 0 0,0
17.10.2018 07:00:00 7,0 5,5 3,8 9,9 13,4 15,0 2 1 4 2 - 1019,4 10 0 0,0
17.10.2018 06:00:00 6,9 6,0 2,0 10,3 13,6 15,0 2 1 4 2 - 1019,1 10 0 0,0
17.10.2018 05:00:00 7,2 6,4 4,0 10,6 13,9 15,0 2 1 8 4 - 1019,0 10 0 0,0
17.10.2018 04:00:00 7,3 6,0 4,5 11,0 14,2 15,0 2 1 5 3 - 1019,1 10 0 0,0
17.10.2018 03:00:00 7,7 6,4 3,9 11,4 14,4 15,0 2 1 5 3 WNW 1019,2 25 0 0,0
17.10.2018 02:00:00 7,8 6,4 4,8 11,8 14,7 15,0 2 1 5 3 - 1019,4 10 0 0,0
17.10.2018 01:00:00 8,9 7,8 6,6 12,3 15,0 15,0 0 0 4 2 N 1019,4 25 0 0,0
17.10.2018 00:00:00 8,7 7,0 6,2 12,9 15,3 15,0 2 1 5 3 - 1019,4 10 0 0,0
16.10.2018 23:00:00 12,0 8,4 6,4 13,5 15,6 15,0 5 3 8 4 N 1019,3 10 0 0,0
16.10.2018 22:00:00 11,6 8,2 9,0 14,0 15,8 15,0 2 1 2 1 ESE 1019,4 10 0 0,0
16.10.2018 21:00:00 12,2 8,3 7,4 14,7 16,1 15,0 2 1 2 1 N 1019,6 10 0 0,0
16.10.2018 20:00:00 13,4 7,9 8,6 15,6 16,3 15,0 2 1 2 1 N 1019,3 20 0 0,0
16.10.2018 19:00:00 15,2 7,6 10,7 16,7 16,4 15,1 2 1 5 3 - 1019,1 10 0 0,0
16.10.2018 18:00:00 17,6 7,5 14,7 18,2 16,2 15,1 5 3 9 5 ESE 1018,6 10 18 0,0
16.10.2018 17:00:00 20,0 6,8 19,6 19,2 16,0 15,1 8 4 11 6 E 1018,2 10 53 0,0
16.10.2018 16:00:00 20,3 7,1 21,6 19,7 15,5 15,1 8 5 13 7 E 1018,3 25 28 0,0
16.10.2018 15:00:00 20,3 6,8 21,3 19,7 15,0 15,1 6 3 13 7 E 1018,2 25 27 0,0
16.10.2018 14:00:00 20,7 6,7 24,2 19,1 14,4 15,1 5 3 15 8 - 1018,2 10 59 0,0
16.10.2018 13:00:00 18,5 6,6 20,2 17,8 13,9 15,1 5 3 16 9 SSE 1018,4 25 56 0,0
16.10.2018 12:00:00 18,1 6,9 20,9 15,9 13,6 15,1 8 4 13 7 SE 1018,6 25 60 0,0
16.10.2018 11:00:00 17,0 6,4 19,7 13,9 13,4 15,1 4 2 9 5 - 1018,4 10 60 0,0
16.10.2018 10:00:00 14,7 6,5 16,2 11,9 13,5 15,0 5 3 8 4 SE 1018,2 10 60 0,0
16.10.2018 09:00:00 11,4 6,2 11,0 10,6 13,7 15,0 4 2 8 4 ENE 1018,2 25 28 0,0
16.10.2018 08:00:00 9,7 5,9 4,9 10,6 14,0 15,0 5 3 8 4 ENE 1017,8 10 0 0,0
16.10.2018 07:00:00 9,1 5,9 3,8 11,0 14,2 15,0 4 2 8 4 N 1017,5 10 0 0,0
16.10.2018 06:00:00 10,9 6,0 3,8 11,4 14,5 15,0 2 1 9 5 ENE 1017,2 30 0 0,0
16.10.2018 05:00:00 11,2 5,7 5,6 11,7 14,7 15,0 2 1 8 4 E 1017,0 30 0 0,0
16.10.2018 04:00:00 10,8 5,5 7,0 12,2 15,0 15,0 4 2 5 3 E 1016,9 30 0 0,0
16.10.2018 03:00:00 12,7 5,4 8,7 12,6 15,3 15,0 4 2 11 6 - 1016,9 10 0 0,0
16.10.2018 02:00:00 13,1 5,4 7,1 13,1 15,5 15,0 4 2 11 6 - 1016,8 10 0 0,0
16.10.2018 01:00:00 13,9 5,0 11,4 13,6 15,8 15,0 9 5 13 7 SE 1016,5 10 0 0,0
16.10.2018 00:00:00 14,3 4,6 10,7 14,1 16,0 15,0 9 5 13 7 SE 1016,6 30 0 0,0
15.10.2018 23:00:00 15,1 4,5 12,7 14,6 16,3 15,0 9 5 16 9 SE 1016,7 10 0 0,0
15.10.2018 22:00:00 15,5 4,8 12,4 15,1 16,6 15,0 8 4 13 7 SE 1016,6 10 0 0,0
15.10.2018 21:00:00 14,9 4,9 12,2 15,9 16,8 15,0 8 4 13 7 SE 1016,5 35 0 0,0
15.10.2018 20:00:00 16,0 4,6 13,0 16,8 17,0 15,0 5 3 13 7 SE 1016,5 10 0 0,0
15.10.2018 19:00:00 17,5 4,7 15,0 17,8 17,0 15,0 8 4 21 11 ESE 1016,1 40 0 0,0
15.10.2018 18:00:00 18,7 5,1 16,8 19,1 16,9 15,0 11 6 22 12 ESE 1015,8 45 36 0,0
15.10.2018 17:00:00 20,9 5,8 21,0 20,0 16,6 15,0 13 7 29 16 SE 1015,5 45 60 0,0
15.10.2018 16:00:00 21,2 4,8 22,4 20,2 16,2 15,0 21 11 33 18 SSE 1015,4 10 59 0,0
15.10.2018 15:00:00 21,4 5,7 23,5 19,9 15,7 15,0 16 9 24 13 SE 1015,5 10 41 0,0
15.10.2018 14:00:00 20,7 5,6 21,7 19,5 15,3 15,0 13 7 26 14 SE 1015,6 10 47 0,0
15.10.2018 13:00:00 19,7 5,3 21,1 18,6 14,8 15,0 9 5 22 12 SSE 1015,6 10 56 0,0
15.10.2018 12:00:00 19,3 4,7 22,3 17,1 14,5 15,0 11 6 24 13 S 1015,8 10 60 0,0
15.10.2018 11:00:00 18,0 5,1 21,1 15,1 14,3 15,0 13 7 22 12 SSE 1015,9 45 60 0,0
15.10.2018 10:00:00 15,7 4,6 16,7 13,3 14,4 15,0 15 8 38 21 SSE 1015,9 10 60 0,0
15.10.2018 09:00:00 14,3 5,0 13,8 12,1 14,6 15,0 9 5 15 8 SE 1015,6 10 27 0,0
15.10.2018 08:00:00 11,9 4,7 9,2 12,2 14,8 14,9 9 5 15 8 ESE 1015,3 10 0 0,0
15.10.2018 07:00:00 12,9 4,7 10,7 12,6 15,1 14,9 11 6 22 12 SE 1014,9 10 0 0,0
15.10.2018 06:00:00 14,0 4,7 12,4 12,9 15,3 14,9 13 7 21 11 SE 1014,9 10 0 0,0
15.10.2018 05:00:00 14,0 4,8 12,4 13,3 15,5 14,9 11 6 22 12 SE 1015,0 10 0 0,0
15.10.2018 04:00:00 12,9 4,7 11,0 13,7 15,8 14,9 13 7 21 11 SE 1014,9 40 0 0,0
15.10.2018 03:00:00 13,9 4,9 11,3 14,2 16,0 14,9 9 5 22 12 SE 1015,1 10 0 0,0
15.10.2018 02:00:00 15,9 5,2 14,2 14,6 16,2 14,9 18 10 26 14 SSE 1014,8 10 0 0,0
15.10.2018 01:00:00 16,1 5,6 14,3 15,0 16,4 14,9 13 7 24 13 SE 1014,7 10 0 0,0
15.10.2018 00:00:00 17,1 6,2 15,1 15,4 16,6 14,9 15 8 25 13 SSE 1014,5 10 0 0,0
14.10.2018 23:00:00 17,4 6,6 15,4 15,8 16,9 14,9 13 7 22 12 SE 1014,6 10 0 0,0
14.10.2018 22:00:00 18,8 6,5 16,7 16,4 17,1 14,9 13 7 23 13 SE 1014,4 10 0 0,0
14.10.2018 21:00:00 19,0 7,2 16,9 16,9 17,3 14,9 13 7 22 12 SE 1014,4 10 0 0,0
14.10.2018 20:00:00 20,6 7,6 18,4 17,6 17,5 14,9 13 7 20 11 SE 1014,4 10 0 0,0
14.10.2018 19:00:00 19,6 7,6 16,6 18,7 17,5 14,9 13 7 22 12 ESE 1014,3 10 0 0,0
14.10.2018 18:00:00 22,4 7,2 20,7 20,1 17,3 14,9 13 7 35 19 SE 1014,3 10 42 0,0
14.10.2018 17:00:00 23,6 7,1 23,3 21,0 17,0 14,9 16 9 36 20 SSE 1014,3 10 60 0,0
14.10.2018 16:00:00 23,9 6,7 24,9 21,4 16,5 14,9 26 14 40 22 SSE 1014,4 40 60 0,0
14.10.2018 15:00:00 23,3 7,0 24,9 21,1 16,0 14,9 29 16 42 23 SSE 1014,6 10 60 0,0
14.10.2018 14:00:00 22,4 8,0 24,4 20,3 15,4 14,9 22 12 40 21 SE 1015,3 10 60 0,0
14.10.2018 13:00:00 21,2 8,2 24,1 18,9 15,0 14,9 22 12 34 18 SSE 1015,9 35 60 0,0
14.10.2018 12:00:00 19,2 8,0 22,3 17,2 14,6 14,8 21 11 33 18 SSE 1016,4 10 60 0,0
14.10.2018 11:00:00 17,2 8,0 19,4 15,4 14,5 14,8 22 12 35 19 SSE 1016,8 10 60 0,0
14.10.2018 10:00:00 15,8 7,8 16,6 13,7 14,5 14,8 18 10 29 16 SE 1017,0 30 60 0,0
14.10.2018 09:00:00 14,1 8,0 13,9 12,6 14,7 14,8 11 6 22 12 SE 1017,3 30 39 0,0
14.10.2018 08:00:00 12,8 7,7 11,6 12,6 14,9 14,8 17 9 28 15 SE 1017,1 20 0 0,0
14.10.2018 07:00:00 13,1 7,7 11,8 12,8 15,1 14,8 16 9 25 13 SE 1017,2 10 0 0,0
14.10.2018 06:00:00 13,0 7,8 11,2 13,1 15,3 14,8 15 8 25 14 ESE 1017,9 25 0 0,0
14.10.2018 05:00:00 14,2 8,2 12,7 13,3 15,6 14,8 18 10 26 14 SE 1018,4 10 0 0,0
14.10.2018 04:00:00 14,0 8,3 12,2 13,6 15,9 14,8 15 8 22 12 SE 1019,0 10 0 0,0
14.10.2018 03:00:00 13,9 8,3 12,0 14,0 16,1 14,8 14 7 20 11 SE 1019,6 25 0 0,0
14.10.2018 02:00:00 13,9 8,3 11,2 14,5 16,4 14,8 11 6 17 9 ESE 1020,0 10 0 0,0
14.10.2018 01:00:00 15,5 8,5 13,2 15,2 16,6 14,8 11 6 23 13 SE 1020,5 25 0 0,0
14.10.2018 00:00:00 17,0 8,9 15,4 15,6 16,9 14,7 16 9 24 13 SE 1020,7 10 0 0,0
13.10.2018 23:00:00 16,9 9,4 14,9 16,1 17,2 14,7 15 8 24 13 SE 1020,9 10 0 0,0
13.10.2018 22:00:00 17,4 9,3 15,5 16,7 17,4 14,7 13 7 23 13 ESE 1021,2 10 0 0,0
13.10.2018 21:00:00 18,5 9,1 16,3 17,4 17,7 14,7 16 9 25 13 ESE 1021,4 10 0 0,0
13.10.2018 20:00:00 19,4 8,9 16,8 18,2 17,8 14,7 13 7 18 10 ESE 1021,7 10 0 0,0
13.10.2018 19:00:00 20,9 8,9 17,0 19,5 17,9 14,7 11 6 15 8 ESE 1021,6 10 0 0,0
13.10.2018 18:00:00 21,7 8,8 19,6 21,1 17,7 14,7 13 7 24 13 ESE 1021,8 10 46 0,0
13.10.2018 17:00:00 24,6 8,2 24,5 22,2 17,3 14,7 15 8 28 15 SSE 1022,2 40 60 0,0
13.10.2018 16:00:00 25,1 9,2 26,1 22,7 16,7 14,7 17 9 27 15 SE 1022,5 40 60 0,0
13.10.2018 15:00:00 25,2 9,7 28,0 22,5 16,0 14,7 16 9 24 13 SSE 1023,0 40 60 0,0
13.10.2018 14:00:00 24,7 9,8 28,7 21,5 15,3 14,7 15 8 36 19 SSE 1023,5 35 60 0,0
13.10.2018 13:00:00 23,5 10,1 26,6 20,0 14,7 14,7 13 7 18 10 SSE 1024,1 10 60 0,0
13.10.2018 12:00:00 21,4 9,8 25,7 17,8 14,3 14,7 10 5 16 9 SSE 1024,6 25 60 0,0
13.10.2018 11:00:00 19,1 9,8 22,5 15,6 14,0 14,7 10 5 21 11 SSE 1024,9 25 60 0,0
13.10.2018 10:00:00 16,5 9,4 18,6 13,4 14,0 14,6 8 4 16 9 SSE 1025,1 20 60 0,0
13.10.2018 09:00:00 14,1 9,4 14,2 11,8 14,2 14,6 6 3 9 5 SE 1025,3 20 42 0,0
13.10.2018 08:00:00 11,8 9,4 7,3 11,6 14,5 14,6 2 1 8 4 - 1025,0 10 0 0,0
13.10.2018 07:00:00 12,1 9,7 6,1 11,9 14,7 14,6 4 2 5 3 - 1024,9 10 0 0,0
13.10.2018 06:00:00 12,0 9,8 8,0 12,3 15,0 14,6 4 2 9 5 E 1024,8 45 0 0,0
13.10.2018 05:00:00 12,2 9,7 7,5 12,6 15,3 14,6 5 3 8 4 ESE 1024,7 45 0 0,0
13.10.2018 04:00:00 13,3 10,0 7,4 13,0 15,6 14,6 5 3 8 4 E 1024,5 10 0 0,0
13.10.2018 03:00:00 13,8 10,4 7,6 13,5 15,9 14,6 4 2 5 3 - 1024,4 10 0 0,0
13.10.2018 02:00:00 14,5 10,6 8,0 14,0 16,2 14,6 5 3 5 3 E 1024,4 45 0 0,0
13.10.2018 01:00:00 14,6 10,7 8,9 14,5 16,5 14,6 3 1 8 4 E 1024,3 45 0 0,0
13.10.2018 00:00:00 15,8 11,0 10,3 15,1 16,8 14,5 3 1 8 4 ENE 1024,2 45 0 0,0
12.10.2018 23:00:00 14,8 10,9 10,2 15,8 17,1 14,5 4 2 5 3 ENE 1024,2 45 0 0,0
12.10.2018 22:00:00 15,8 11,0 11,7 16,5 17,4 14,5 4 2 4 2 ENE 1024,3 10 0 0,0
12.10.2018 21:00:00 16,4 10,7 10,6 17,4 17,6 14,5 2 1 4 2 - 1024,1 10 0 0,0
12.10.2018 20:00:00 17,9 10,1 12,6 18,6 17,8 14,5 4 2 5 3 E 1023,9 10 0 0,0
12.10.2018 19:00:00 21,4 9,9 18,5 19,9 17,8 14,5 8 4 18 10 SE 1023,1 40 0 0,0
12.10.2018 18:00:00 23,7 9,5 22,1 21,3 17,5 14,5 9 5 18 10 SSE 1022,7 10 48 0,0
12.10.2018 17:00:00 24,9 9,1 25,0 22,3 17,1 14,5 9 5 18 10 SSE 1022,6 10 60 0,0
12.10.2018 16:00:00 24,8 9,0 27,0 22,8 16,5 14,5 13 7 18 10 S 1022,7 40 60 0,0
12.10.2018 15:00:00 24,3 9,2 27,8 22,5 15,8 14,5 13 7 18 10 S 1022,5 10 60 0,0
12.10.2018 14:00:00 23,3 8,8 27,5 21,4 15,1 14,5 10 5 22 12 SSW 1022,5 35 60 0,0
12.10.2018 13:00:00 22,2 9,6 26,2 19,8 14,5 14,5 11 6 22 12 SSE 1022,6 10 60 0,0
12.10.2018 12:00:00 20,0 9,2 24,5 17,7 14,0 14,5 8 4 16 9 S 1022,8 35 60 0,0
12.10.2018 11:00:00 18,6 9,6 22,1 15,5 13,8 14,5 9 5 18 10 S 1022,5 10 60 0,0
12.10.2018 10:00:00 16,3 9,6 18,0 13,3 13,8 14,4 11 6 18 10 SSE 1021,8 35 60 0,0
12.10.2018 09:00:00 14,3 9,3 14,0 11,8 14,0 14,4 8 4 16 9 SE 1021,2 10 43 0,0
12.10.2018 08:00:00 12,5 9,0 9,6 11,7 14,3 14,4 8 4 11 6 ESE 1020,8 10 0 0,0
12.10.2018 07:00:00 12,7 8,9 9,3 12,0 14,5 14,4 5 3 15 8 ESE 1020,2 10 0 0,0
12.10.2018 06:00:00 13,0 8,9 11,4 12,4 14,7 14,4 13 7 16 9 ESE 1019,7 10 0 0,0
12.10.2018 05:00:00 13,5 8,7 10,9 12,9 15,0 14,4 9 5 18 10 SE 1019,4 10 0 0,0
12.10.2018 04:00:00 14,3 8,8 12,7 13,3 15,2 14,4 13 7 21 11 ESE 1019,1 10 0 0,0
12.10.2018 03:00:00 15,0 8,6 13,0 13,6 15,4 14,4 11 6 22 12 SE 1018,9 10 0 0,0

tt = temperature
td = dewpoint
tt 5cm = temperature 5cm
tt -5cm = temperature -5cm
tt -20cm = temperature -20cm
tt -100cm = temperature -100cm
ff = wind speed
fx = gusts
dd = wind direction
ppp = reduced air pressure
vv = visibility
sd = sunshine duration
rr = precipitation

Next stations